[[{"header":{"parameterUnit":"m.s-1","parameterCategory":1,"la1":30.2991,"la2":30.254,"lo1":-89.0895,"lo2":-89.0444,"dy":0.0017,"dx":0.0017,"nx":28,"ny":28,"refTime":"2024-09-25T09:00:00:Z","depth":0,"parameterNumber":2,"parameterNumberName":"U-component_of_WINDS"},"data":[0,0,0,0,0,0,0,0,0,0,0,0,0,0,0,0,0,0,0,0,0,0,0,0,0,0,0,0,0,0,0,0,0,0,0,0,0,0,0,0,0,0,0,0,0,0,0,0,0,0,0,0,0,0,0,0,0,0,3.177,3.1769,0,3.1679,3.1678,3.1677,3.1565,3.1564,3.1562,3.156,3.1466,3.1466,3.1465,0,0,0,0,0,0,0,0,0,0,0,0,0,3.1847,3.1846,3.177,3.1769,3.1767,3.1679,3.1678,3.1677,3.1566,3.1563,3.1561,3.1559,3.1467,3.1466,3.1465,0,0,0,0,0,0,0,0,0,0,0,0,0,3.1791,3.1846,3.177,3.1701,3.1694,3.1679,3.1678,3.1676,3.1566,3.1563,3.1561,3.1558,3.1467,3.1466,3.1465,3.1509,0,0,3.1461,3.146,0,0,0,0,0,0,0,0,3.1794,3.1788,3.1713,3.1706,3.1698,3.1631,3.1671,3.162,3.1567,3.1615,3.156,3.1557,3.1523,3.1517,3.1506,3.1505,3.1501,3.146,3.146,3.1459,3.1459,0,0,0,0,0,0,0,3.1798,3.1791,3.1734,3.1712,3.1703,3.1675,3.1664,3.1661,3.1585,3.161,3.1602,3.1593,3.1519,3.1507,3.1503,3.1499,3.1461,3.1459,3.1459,3.1458,3.1531,3.1534,0,0,0,0,0,0,3.1812,3.1795,3.1737,3.1731,3.1741,3.1676,3.1664,3.1655,3.1585,3.1571,3.1595,3.1588,3.1511,3.1504,3.1499,3.1547,3.1459,3.1458,3.1457,3.1529,3.1532,3.1535,0,0,0,0,0,0,3.1814,3.1808,3.174,3.1761,3.175,3.1678,3.1669,3.1655,3.1643,3.1573,3.1559,3.1598,3.1509,3.1501,3.1508,3.1542,3.1457,3.1456,3.1526,3.153,3.1534,3.1644,0,0,0,0,0,0,3.1817,3.181,3.1826,3.1762,3.1749,3.1751,3.1671,3.1655,3.1641,3.1631,3.1571,3.1559,3.1506,3.151,3.1507,3.1539,3.1455,3.1522,3.1527,3.1532,3.1637,3.1651,3.1663,0,0,0,0,0,3.182,3.186,3.1827,3.1821,3.1768,3.1753,3.1746,3.1684,3.1644,3.166,3.1615,3.1561,3.154,3.1512,3.1507,3.1539,3.152,3.1526,3.1532,3.1631,3.1648,3.1663,0,0,0,0,0,0,3.1928,3.185,3.1813,3.1833,3.1801,3.1734,3.1752,3.1704,3.1682,3.1673,3.1597,3.1585,3.1601,3.1571,3.1542,3.1579,3.1522,3.1527,3.1598,3.1615,3.1628,3.1634,3.1454,0,0,0,0,0,3.1955,3.1949,3.1881,3.1905,3.1891,3.1825,3.1816,3.1771,3.1734,3.172,3.1675,3.1642,3.1627,3.1619,3.1602,3.1632,3.1618,3.1652,3.1665,3.1677,3.1682,3.1697,3.1711,3.1555,3.1555,3.1555,0,0,3.2009,3.1966,3.1966,3.1926,3.1896,3.1892,3.1814,3.1812,3.1809,3.1719,3.1723,3.169,3.1647,3.1667,3.1673,3.1642,3.1722,3.1685,3.1694,3.1693,3.1704,3.1719,3.1732,3.1559,3.1559,3.1558,0,0,3.2105,3.2072,3.2089,3.206,3.2016,3.1971,3.1976,3.1917,3.1892,3.1895,3.1828,3.1823,3.1799,3.1772,3.1755,3.1844,3.1793,3.184,3.191,3.1925,3.1937,3.1947,3.1979,3.1992,3.1846,3.1846,3.1846,0,3.2178,3.2169,3.2104,3.2107,3.2091,3.2011,3.2028,3.2004,3.1956,3.1947,3.1914,3.1883,3.1849,3.1861,3.1883,3.1872,3.1875,3.1846,3.1941,3.195,3.1959,3.1989,3.2001,3.1852,3.1851,3.1851,3.185,0,3.2261,3.2256,3.2275,3.2232,3.2219,3.2229,3.2165,3.216,3.2117,3.2077,3.2081,3.2038,3.2011,3.201,3.1968,3.2017,3.1999,3.1955,3.1895,3.1981,3.2008,3.2019,3.1861,3.1859,3.1857,3.1855,0,0,3.2422,3.2343,3.2351,3.2331,3.2277,3.2272,3.2279,3.2253,3.225,3.222,3.2224,3.2208,3.2166,3.2147,3.2101,3.2115,3.2189,3.2068,3.2066,3.2092,3.224,3.2274,3.2288,3.2155,3.2157,3.2159,3.2244,0,3.2508,3.2515,3.2457,3.2481,3.2476,3.2401,3.2407,3.2375,3.2338,3.2328,3.2287,3.2277,3.2223,3.2211,3.2221,3.2178,3.2217,3.2171,3.2158,3.2159,3.2171,3.2302,3.2338,3.242,3.2254,3.2255,3.2257,0,3.2609,3.2586,3.2609,3.2555,3.255,3.2557,3.2529,3.2521,3.2484,3.2456,3.2436,3.2384,3.2388,3.2332,3.2336,3.2306,3.2298,3.2276,3.2278,3.2274,3.2213,3.2302,3.2445,3.2457,3.2272,3.2271,3.227,0,3.2724,3.2699,3.2709,3.2694,3.2631,3.2638,3.2612,3.2572,3.256,3.2536,3.2528,3.2505,3.2493,3.2476,3.242,3.2384,3.2431,3.237,3.2408,3.241,3.2421,3.2421,3.2565,3.2416,3.2416,3.2416,3.2416,0,3.2826,3.2843,3.276,3.2767,3.2784,3.2718,3.2737,3.2703,3.2669,3.2668,3.2601,3.2602,3.2528,3.252,3.2476,3.2487,3.2482,3.2459,3.2447,3.2465,3.2468,3.2458,3.2451,3.2419,3.2419,3.2418,3.2417,0,3.2957,3.2902,3.2909,3.2849,3.2835,3.285,3.2799,3.2803,3.2763,3.2763,3.2759,3.2696,3.2683,3.2626,3.26,3.257,3.2596,3.2573,3.2609,3.2601,3.2643,3.264,3.2785,3.2801,3.2643,3.2645,3.2646,0,3.3026,3.3037,3.2979,3.2974,3.2952,3.2944,3.2932,3.2868,3.2859,3.2818,3.2827,3.281,3.2792,3.2777,3.2729,3.2709,3.2684,3.2737,3.2681,3.2699,3.2685,3.2685,3.2686,3.2748,3.2751,3.2752,3.2754,0,3.3153,3.3126,3.3112,3.3089,3.3078,3.3056,3.3031,3.3031,3.2959,3.2953,3.294,3.2927,3.2901,3.2885,3.2857,3.283,3.2781,3.2772,3.2779,3.2797,3.2818,3.2808,3.2642,3.2768,3.2767,3.2766,3.2765,3.2764,3.3255,3.3262,3.3223,3.321,3.3185,3.3163,3.3164,3.3124,3.3113,3.3087,3.305,3.3042,3.3005,3.2963,3.2941,3.2935,3.2906,3.2917,3.292,3.2924,3.2933,3.282,3.2929,3.2929,3.2928,3.2928,3.2927,0,3.3379,3.3351,3.334,3.3307,3.3297,3.3252,3.3222,3.3217,3.3211,3.3181,3.3166,3.3152,3.3136,3.3088,3.3068,3.3072,3.3049,3.3069,3.3068,3.3062,3.2959,3.2955,3.3088,3.3088,3.3088,3.3088,3.3088,3.3088,3.3443,3.3453,3.3421,3.3418,3.3389,3.3382,3.3369,3.3349,3.3325,3.3312,3.3299,3.3268,3.3231,3.3208,3.3192,3.3178,3.3174,3.3202,3.318,3.3085,3.3069,3.3055,3.305,3.3201,3.3201,3.3284,3.3284,3.3285]},{"header":{"parameterUnit":"m.s-1","parameterCategory":1,"la1":30.2991,"la2":30.254,"lo1":-89.0895,"lo2":-89.0444,"dy":0.0017,"dx":0.0017,"nx":28,"ny":28,"refTime":"2024-09-25T09:00:00:Z","depth":0,"parameterNumber":3,"parameterNumberName":"V-component_of_WINDS"},"data":[0,0,0,0,0,0,0,0,0,0,0,0,0,0,0,0,0,0,0,0,0,0,0,0,0,0,0,0,0,0,0,0,0,0,0,0,0,0,0,0,0,0,0,0,0,0,0,0,0,0,0,0,0,0,0,0,0,0,-6.7266,-6.7268,0,-6.7457,-6.7459,-6.7461,-6.741,-6.7406,-6.7402,-6.7399,-6.7593,-6.7602,-6.7611,0,0,0,0,0,0,0,0,0,0,0,0,0,-6.6858,-6.6866,-6.7266,-6.7269,-6.7271,-6.7456,-6.7459,-6.7462,-6.7411,-6.7406,-6.7401,-6.7397,-6.7591,-6.7601,-6.7611,0,0,0,0,0,0,0,0,0,0,0,0,0,-6.7041,-6.6869,-6.7266,-6.7268,-6.727,-6.7456,-6.7459,-6.7462,-6.7412,-6.7406,-6.74,-6.7395,-6.7587,-6.76,-6.7613,-6.7808,0,0,-6.7653,-6.7659,0,0,0,0,0,0,0,0,-6.7031,-6.7056,-6.7265,-6.7268,-6.7271,-6.7404,-6.7387,-6.7578,-6.7413,-6.7358,-6.7399,-6.7392,-6.7535,-6.7552,-6.76,-6.7817,-6.7826,-6.7654,-6.7662,-6.7668,-6.7671,0,0,0,0,0,0,0,-6.7018,-6.7047,-6.7342,-6.7268,-6.7272,-6.7259,-6.7279,-6.7423,-6.7476,-6.7362,-6.7359,-6.7382,-6.7535,-6.7588,-6.7604,-6.7828,-6.7654,-6.7665,-6.7673,-6.7679,-6.8217,-6.8223,0,0,0,0,0,0,-6.7003,-6.7037,-6.7336,-6.7347,-6.7134,-6.7271,-6.7293,-6.7367,-6.7474,-6.7485,-6.7387,-6.7379,-6.7568,-6.7589,-6.7611,-6.7848,-6.7667,-6.768,-6.7687,-6.821,-6.8218,-6.8225,0,0,0,0,0,0,-6.6995,-6.703,-6.7328,-6.7192,-6.7228,-6.7284,-6.7368,-6.7374,-6.7426,-6.7493,-6.7502,-6.7431,-6.7565,-6.7593,-6.776,-6.7854,-6.7686,-6.7698,-6.8203,-6.8213,-6.8222,-6.8323,0,0,0,0,0,0,-6.6983,-6.7028,-6.7102,-6.7194,-6.7236,-6.7474,-6.7373,-6.7382,-6.7449,-6.744,-6.7537,-6.7547,-6.7562,-6.7741,-6.7773,-6.7869,-6.7708,-6.8194,-6.8207,-6.8218,-6.8312,-6.8335,-6.8355,0,0,0,0,0,-6.6969,-6.7123,-6.7107,-6.7143,-6.7331,-6.7479,-6.7504,-6.7518,-6.7457,-6.7533,-6.7576,-6.7544,-6.7838,-6.7758,-6.7794,-6.7896,-6.8189,-6.8204,-6.8218,-6.8302,-6.8331,-6.8355,0,0,0,0,0,0,-6.7041,-6.7135,-6.7118,-6.7306,-6.7385,-6.747,-6.7567,-6.7548,-6.7646,-6.7634,-6.7647,-6.7669,-6.7841,-6.7884,-6.7794,-6.8091,-6.8005,-6.8027,-6.8056,-6.8084,-6.8105,-6.8092,-6.7719,0,0,0,0,0,-6.7079,-6.7192,-6.7268,-6.7427,-6.7467,-6.751,-6.7576,-6.758,-6.7662,-6.7696,-6.7751,-6.7832,-6.7943,-6.8016,-6.8121,-6.8317,-6.8338,-6.8405,-6.8426,-6.8444,-6.8464,-6.8572,-6.8603,-6.8273,-6.8272,-6.8272,0,0,-6.7159,-6.7224,-6.7294,-6.7443,-6.7505,-6.7622,-6.7539,-6.7666,-6.7753,-6.7715,-6.7877,-6.792,-6.8011,-6.8195,-6.8278,-6.8236,-6.8559,-6.8463,-6.8476,-6.8486,-6.859,-6.8621,-6.8649,-6.8282,-6.8281,-6.8279,0,0,-6.7364,-6.7424,-6.7564,-6.7627,-6.7722,-6.775,-6.7783,-6.7872,-6.79,-6.8062,-6.8036,-6.814,-6.833,-6.8397,-6.8456,-6.8687,-6.8662,-6.872,-6.8835,-6.894,-6.8966,-6.8989,-6.9073,-6.9103,-6.8739,-6.874,-6.874,0,-6.745,-6.7626,-6.7638,-6.7768,-6.7834,-6.7805,-6.7947,-6.8008,-6.8133,-6.818,-6.8131,-6.837,-6.843,-6.8628,-6.8685,-6.8733,-6.8772,-6.871,-6.8961,-6.8985,-6.9007,-6.9087,-6.9118,-6.8746,-6.8746,-6.8745,-6.8744,0,-6.7729,-6.7851,-6.7952,-6.8074,-6.8152,-6.8287,-6.832,-6.8397,-6.8394,-6.8427,-6.8594,-6.8664,-6.8784,-6.8831,-6.8829,-6.903,-6.9002,-6.8957,-6.8871,-6.9045,-6.912,-6.9151,-6.8756,-6.8753,-6.8751,-6.875,0,0,-6.7986,-6.8112,-6.815,-6.8205,-6.8308,-6.8402,-6.8536,-6.8654,-6.8721,-6.8807,-6.8921,-6.9083,-6.9043,-6.9109,-6.9115,-6.9207,-6.9388,-6.9152,-6.9154,-6.9195,-6.9615,-6.9649,-6.9684,-6.9371,-6.9377,-6.9382,-6.9608,0,-6.8201,-6.8437,-6.8452,-6.8667,-6.878,-6.8754,-6.8871,-6.8947,-6.8981,-6.9082,-6.9119,-6.9235,-6.9173,-6.9213,-6.9303,-6.9347,-6.9473,-6.933,-6.9478,-6.9483,-6.9457,-6.9724,-6.976,-6.997,-6.9637,-6.9642,-6.9646,0,-6.8484,-6.858,-6.8806,-6.8894,-6.8942,-6.9047,-6.9156,-6.9253,-6.9339,-6.9357,-6.9432,-6.9425,-6.9563,-6.9471,-6.9661,-6.9564,-6.9625,-6.9656,-6.9664,-6.968,-6.9576,-6.9748,-7.0037,-7.0069,-6.9692,-6.9689,-6.9685,0,-6.865,-6.8836,-6.8996,-6.9044,-6.915,-6.9224,-6.9272,-6.9351,-6.9422,-6.9517,-6.9563,-6.9673,-6.9734,-6.9819,-6.9842,-6.9772,-7.0033,-6.9942,-7.0053,-7.0053,-7.011,-7.0107,-7.0415,-7.0147,-7.0146,-7.0146,-7.0145,0,-6.889,-6.903,-6.9072,-6.9171,-6.9327,-6.9342,-6.9496,-6.9539,-6.961,-6.9716,-6.97,-6.98,-6.9823,-6.9928,-6.9946,-7.0103,-7.0129,-7.0149,-7.0152,-7.0152,-7.0149,-7.0193,-7.018,-7.0154,-7.0152,-7.0151,-7.0149,0,-6.9103,-6.9137,-6.931,-6.9396,-6.9421,-6.9532,-6.9606,-6.9701,-6.9732,-6.9868,-6.99,-6.995,-7.0073,-7.0104,-7.025,-7.0262,-7.0447,-7.0436,-7.0419,-7.0419,-7.0528,-7.0518,-7.0877,-7.0925,-7.0624,-7.0627,-7.0629,0,-6.9255,-6.9362,-6.946,-6.9531,-6.9582,-6.9695,-6.9766,-6.9785,-6.9861,-6.9967,-7.0049,-7.017,-7.0267,-7.0464,-7.0514,-7.0626,-7.0618,-7.0736,-7.0635,-7.0631,-7.0622,-7.0616,-7.0628,-7.0756,-7.0759,-7.0762,-7.0764,0,-6.9521,-6.9533,-6.9637,-6.9748,-6.9834,-6.9922,-7.0006,-7.0065,-7.0095,-7.0181,-7.0306,-7.0382,-7.0532,-7.0652,-7.0765,-7.0814,-7.0795,-7.0795,-7.0827,-7.0828,-7.0815,-7.0825,-7.0473,-7.0787,-7.0785,-7.0783,-7.0782,-7.0781,-6.971,-6.9804,-6.9888,-7.0005,-7.0071,-7.015,-7.0244,-7.0287,-7.0392,-7.0516,-7.052,-7.0658,-7.0741,-7.089,-7.0946,-7.1053,-7.1017,-7.1063,-7.1075,-7.1086,-7.1097,-7.0796,-7.1073,-7.1073,-7.1072,-7.1071,-7.1071,0,-6.9977,-7.003,-7.0137,-7.0256,-7.0348,-7.0321,-7.0413,-7.0492,-7.0613,-7.0692,-7.0789,-7.0934,-7.1051,-7.1109,-7.1225,-7.13,-7.1295,-7.133,-7.1326,-7.1338,-7.1121,-7.1083,-7.1333,-7.1333,-7.1333,-7.1333,-7.1333,-7.1333,-7.0127,-7.0286,-7.0307,-7.0499,-7.055,-7.0685,-7.074,-7.0813,-7.0877,-7.1039,-7.1136,-7.1174,-7.1245,-7.1366,-7.1473,-7.1487,-7.1531,-7.1572,-7.1582,-7.1379,-7.1352,-7.1327,-7.1291,-7.1581,-7.1581,-7.1789,-7.1791,-7.1792]}]]